Flag for Israel Weather past 2 weeks in Bat Yam, Israel

Now
66 °F

Sunny.


Feels Like: 66 °F
Forecast: 56 / 71 °F
Wind: 8 mph from West

Location: Dov Airport

Current Time: Jan 31, 2015 at 2:07:08 PM

Latest Report: Jan 31, 2015 at 12:50 PM


Visibility: 10 mi

Pressure: 30.09 "Hg

Humidity: 35%

Dew point: 37 °F

Location of Bat YamLocation

Historic Weather in Bat Yam — Graph

°F

Bat Yam temperature yesterday

Maximum temperature yesterday: 64 °F (at 11:50 AM)
Minimum temperature yesterday: 54 °F (at 5:50 AM)
Average temperature yesterday: 60 °F

Past Weeks' High & Low Weather Summary

 TemperatureHumidityPressure
High72 °F (Jan 21, 3:50 PM)94% (Jan 25, 7:50 PM)30.30 "Hg (Jan 25, 7:50 PM)
Low48 °F (Jan 18, 5:50 AM)31% (Jan 24, 9:50 AM)29.86 "Hg (Jan 27, 10:50 PM)
Average60 °F64%30.06 "Hg
* Reported Jan 16 12:50 PM — Jan 31 12:50 PM, Bat Yam, Weather by CustomWeather, © 2014

Note: Actual official high and low records may vary slightly from our data, if they occured in-between our weather recording intervals... More about our weather records

Advertising

Bat Yam weather history for previous 24 hours

 ConditionsComfort  
Time TempWeatherWind HumidityBarometerVisibility
12:50 PM
Jan 31
66 °FSunny.8 mph35%30.09 "Hg10 mi
11:50 AM64 °FSunny.8 mph34%30.12 "Hg10 mi
10:50 AM64 °FSunny.6 mph37%30.12 "Hg10 mi
9:50 AM63 °FSunny.5 mph34%30.12 "Hg10 mi
8:50 AM57 °FSunny.7 mph44%30.12 "Hg10 mi
7:50 AM54 °FSunny.6 mph51%30.12 "Hg10 mi
6:50 AM52 °FPassing clouds.6 mph54%30.12 "HgN/A
6:00 AM52 °FClear.7 mph58%30.12 "Hg10 mi
9:50 PM
Jan 30
55 °FClear.5 mph51%30.09 "Hg10 mi
8:50 PM57 °FClear.6 mph48%30.07 "Hg10 mi
7:50 PM59 °FClear.5 mph45%30.07 "Hg10 mi
6:50 PM61 °FClear.8 mph45%30.07 "Hg10 mi
5:50 PM63 °FClear.12 mph39%30.04 "Hg10 mi
4:50 PM63 °FSunny.12 mph39%30.04 "Hg10 mi
3:50 PM63 °FSunny.14 mph42%30.01 "Hg10 mi
2:50 PM64 °FSunny.16 mph40%30.01 "Hg10 mi
Weather by CustomWeather, © 2014

See weather overviewHow to use our weather pages